TimeEDT,TemperatureF,Dew PointF,Humidity,Sea Level PressureIn,VisibilityMPH,Wind Direction,Wind SpeedMPH,Gust SpeedMPH,PrecipitationIn,Events,Conditions,WindDirDegrees,DateUTC
12:54 AM,46.0,41.0,83,30.06,10.0,Calm,Calm,-,N/A,,Clear,0,2012-10-11 04:54:00
1:54 AM,48.9,37.0,64,30.09,10.0,West,4.6,-,N/A,,Partly Cloudy,270,2012-10-11 05:54:00
2:54 AM,48.0,36.0,63,30.11,10.0,West,8.1,-,N/A,,Partly Cloudy,260,2012-10-11 06:54:00
3:54 AM,48.0,34.0,58,30.13,10.0,WNW,8.1,-,N/A,,Partly Cloudy,290,2012-10-11 07:54:00
4:54 AM,46.9,33.1,59,30.16,10.0,West,9.2,-,N/A,,Clear,280,2012-10-11 08:54:00
5:54 AM,44.1,33.1,65,30.18,10.0,WNW,9.2,-,N/A,,Clear,300,2012-10-11 09:54:00
6:54 AM,45.0,32.0,60,30.21,10.0,WNW,4.6,-,N/A,,Mostly Cloudy,290,2012-10-11 10:54:00
7:54 AM,46.0,32.0,58,30.22,10.0,NW,10.4,-,N/A,,Clear,310,2012-10-11 11:54:00
8:54 AM,48.9,32.0,52,30.24,10.0,WNW,13.8,-,N/A,,Clear,300,2012-10-11 12:54:00
9:54 AM,51.1,32.0,48,30.26,10.0,WNW,13.8,-,N/A,,Clear,300,2012-10-11 13:54:00
10:54 AM,53.1,30.9,43,30.26,10.0,WNW,16.1,21.9,N/A,,Clear,290,2012-10-11 14:54:00
11:54 AM,54.0,32.0,43,30.25,10.0,NW,8.1,-,N/A,,Clear,320,2012-10-11 15:54:00
12:54 PM,57.0,34.0,42,30.22,10.0,WNW,8.1,-,N/A,,Clear,290,2012-10-11 16:54:00
1:54 PM,57.9,33.1,39,30.21,10.0,West,10.4,-,N/A,,Clear,280,2012-10-11 17:54:00
2:54 PM,57.9,33.1,39,30.20,10.0,Variable,6.9,-,N/A,,Clear,0,2012-10-11 18:54:00
3:54 PM,59.0,34.0,39,30.18,10.0,West,4.6,-,N/A,,Clear,270,2012-10-11 19:54:00
4:54 PM,59.0,33.1,38,30.18,10.0,WSW,6.9,-,N/A,,Clear,240,2012-10-11 20:54:00
6:54 PM,52.0,34.0,50,30.18,10.0,South,3.5,-,N/A,,Clear,180,2012-10-11 22:54:00
7:54 PM,51.1,36.0,56,30.19,10.0,South,3.5,-,N/A,,Clear,180,2012-10-11 23:54:00
9:54 PM,46.0,37.9,73,30.19,10.0,South,4.6,-,N/A,,Clear,170,2012-10-12 01:54:00
10:54 PM,45.0,37.9,76,30.19,10.0,Calm,Calm,-,N/A,,Clear,0,2012-10-12 02:54:00
11:54 PM,46.0,37.9,73,30.17,10.0,Calm,Calm,-,N/A,,Clear,0,2012-10-12 03:54:00